Location: Unspecified
(0.0000°N, 0.0000°E)
Time: 06:58:29
(UTC+00:00)

Envisat - Pass Details

Date: 14 October 2019
Orbit: 764 x 766 km, 98.1° (Epoch: 15 October)

Event Time Altitude Azimuth Distance (km) Brightness Sun altitude
Rises 19:19:09 0° 192° (SSW) 3,230 6.5 -23.0°
Reaches altitude 10° 19:21:52 10° 206° (SSW) 2,301 5.9 -23.7°
Maximum altitude 19:25:50 23° 258° (WSW) 1,571 5.4 -24.7°
Drops below altitude 10° 19:29:47 10° 309° (NW) 2,293 6.0 -25.7°
Sets 19:32:30 0° 324° (NW) 3,216 6.6 -26.3°
